Location: Buckenweiler
(49.0667°N, 10.2500°E)
Time: 02:30:31
(UTC+00:00)

CZ-4 R/B - Pass Details

Date: 18 January 2026
Orbit: 676 x 743 km, 98.7° (Epoch: 6 February)

Event Time Altitude Azimuth Distance (km) Brightness Sun altitude
Rises 04:50:55 0° 14° (NNE) 3,103 7.2 -21.6°
Reaches altitude 10° 04:53:09 10° 13° (NNE) 2,191 6.4 -21.2°
Maximum altitude 04:57:58 83° 287° (WNW) 730 3.7 -20.4°
Drops below altitude 10° 05:02:51 10° 200° (SSW) 2,217 6.3 -19.6°
Sets 05:05:07 0° 199° (SSW) 3,143 7.1 -19.3°
